Home   Weather   Nantucket   Past weeks
Flag for USA

Past Weather in Nantucket, Massachusetts, USA — Yesterday and Last 2 Weeks

Now
61 °F

Scattered clouds.


Feels Like: 61 °F
Forecast: 57 / 52 °F
Wind: 13 mph from Northeast

Location: Nantucket Memorial Airport

Current Time: Oct 22, 2019 at 3:11:32 pm

Latest Report: Oct 22, 2019 at 1:53 pm


Visibility: 10 mi

Pressure: 30.05 "Hg

Humidity: 75%

Dew Point: 53 °F

Location of NantucketLocation

Past Weather in Nantucket — Graph

°F

Nantucket Temperature Yesterday

Maximum temperature yesterday: 60 °F (at 2:53 pm)
Minimum temperature yesterday: 53 °F (at 4:53 am)
Average temperature yesterday: 55 °F

High & Low Weather Summary for the Past Weeks

 TemperatureHumidityPressure
High71 °F (Oct 7, 12:53 pm)100% (Oct 12, 8:53 am)30.23 "Hg (Oct 12, 8:53 am)
Low40 °F (Oct 20, 12:53 am)56% (Oct 18, 12:53 pm)29.01 "Hg (Oct 17, 3:31 am)
Average56 °F85%29.95 "Hg
* Reported Oct 7 11:53 am — Oct 22 11:53 am, Nantucket. Weather by CustomWeather, © 2019

Note: Actual official high and low records may vary slightly from our data, if they occured in-between our weather recording intervals... More about our weather records

Advertising

Nantucket Weather History for the Previous 24 Hours

Scroll right to see more
 ConditionsComfort  
Time TempWeatherWind HumidityBarometerVisibility
11:53 am
Tue, Oct 22
61 °FMostly cloudy.13 mph72%30.06 "Hg10 mi
10:53 am61 °FPartly sunny.16 mph70%30.09 "Hg10 mi
9:53 am59 °FPartly sunny.13 mph78%30.10 "Hg10 mi
8:53 am57 °FOvercast.10 mph83%30.10 "Hg10 mi
7:53 am56 °FOvercast.9 mph90%30.09 "Hg10 mi
6:53 am55 °FOvercast.10 mph93%30.09 "Hg10 mi
6:30 am55 °FPassing clouds.13 mph93%30.09 "Hg10 mi
6:08 am54 °FPassing clouds.13 mph93%30.08 "HgN/A
5:53 am54 °FPassing clouds.14 mph93%30.08 "HgN/A
5:12 am54 °FPassing clouds.12 mph97%30.09 "HgN/A
4:53 am54 °FPassing clouds.13 mph97%30.08 "HgN/A
3:53 am54 °FClear.13 mph93%30.07 "HgN/A
2:53 am54 °FClear.13 mph93%30.08 "HgN/A
1:53 am53 °FClear.10 mph96%30.11 "HgN/A
12:53 am53 °FPassing clouds.12 mph96%30.11 "HgN/A
12:22 am53 °FPassing clouds.14 mph96%30.11 "HgN/A
11:53 pm
Mon, Oct 21
54 °FLow clouds.14 mph93%30.13 "HgN/A
11:23 pm54 °FLow clouds.15 mph93%30.12 "HgN/A
10:53 pm54 °FLow clouds.15 mph93%30.12 "HgN/A
10:00 pm54 °FPassing clouds.15 mph93%30.12 "HgN/A
8:53 pm53 °FClear.14 mph93%30.11 "Hg10 mi
7:53 pm54 °FClear.15 mph90%30.11 "Hg10 mi
6:53 pm54 °FClear.15 mph90%30.10 "Hg10 mi
5:53 pm54 °FClear.17 mph90%30.08 "Hg10 mi
4:53 pm57 °FSunny.21 mph83%30.05 "Hg10 mi
3:53 pm57 °FOvercast.18 mph83%30.04 "Hg10 mi
Weather by CustomWeather, © 2019

See weather overview